This is the latest recevied weather packets stored in our database for station/object N4NVD-13. If no packets are shown the sender has not sent any weather packets the latest 10 day(s).
| Time | Temp. | Humidity | Pressure | Rain* | Wind** | Luminosity | Snow |
|---|---|---|---|---|---|---|---|
| 1777497350 | 20.56° C | 97% | 1009.3 hPa | 0 mm | - | 147 W/m² | - |
| 1777497045 | 21.11° C | 96% | 1009.6 hPa | 0 mm | - | 150 W/m² | - |
| 1777496743 | 21.11° C | 96% | 1010.9 hPa | 0 mm | - | 51 W/m² | - |
| 1777496439 | 21.67° C | 96% | 1010.9 hPa | 0 mm | - | 24 W/m² | - |
| 1777496136 | 22.22° C | 95% | 1011 hPa | 0 mm | - | 21 W/m² | - |
| 1777495832 | 22.78° C | 95% | 1010.6 hPa | 0 mm | - | 29 W/m² | - |
| 1777495528 | 23.33° C | 94% | 1010.3 hPa | 0 mm | - | 32 W/m² | - |
| 1777495224 | 23.33° C | 93% | 1009.8 hPa | 0 mm | - | 27 W/m² | - |
| 1777494922 | 24.44° C | 92% | 1010.2 hPa | 0 mm | - | 22 W/m² | - |
| 1777494619 | 26.11° C | 89% | 1010.2 hPa | 0 mm | - | 27 W/m² | - |
| 1777494316 | 27.22° C | 89% | 1010 hPa | 0 mm | - | 33 W/m² | - |
| 1777494012 | 27.78° C | 88% | 1009.8 hPa | 0 mm | - | 33 W/m² | - |
| 1777493711 | 27.78° C | 88% | 1009.7 hPa | 0 mm | - | 78 W/m² | - |
| 1777493409 | 27.78° C | 86% | 1009.9 hPa | 0 mm | - | 114 W/m² | - |
| 1777493104 | 27.78° C | 87% | 1009.7 hPa | 0 mm | - | 149 W/m² | - |
| 1777492801 | 28.33° C | 87% | 1009.9 hPa | 0 mm | - | 138 W/m² | - |
| 1777492496 | 28.33° C | 86% | 1009.9 hPa | 0 mm | - | 177 W/m² | - |
| 1777492193 | 28.33° C | 86% | 1009.8 hPa | 0 mm | - | 209 W/m² | - |
| 1777491890 | 28.33° C | 86% | 1010 hPa | 0 mm | - | 273 W/m² | - |
| 1777491586 | 28.33° C | 87% | 1010 hPa | 0 mm | - | 218 W/m² | - |
| 1777491284 | 27.78° C | 87% | 1010.1 hPa | 0 mm | - | 144 W/m² | - |
| 1777490981 | 27.78° C | 87% | 1010 hPa | 0 mm | - | 187 W/m² | - |
| 1777490676 | 27.78° C | 87% | 1009.9 hPa | 0 mm | - | 199 W/m² | - |
| 1777490372 | 27.78° C | 86% | 1010.1 hPa | 0 mm | - | 193 W/m² | - |
| 1777490070 | 27.78° C | 86% | 1010.2 hPa | 0 mm | - | 219 W/m² | - |
* Rain latest hour (hover to see other rain measurements)
** Current wind speed in m/s (hover to see current wind gust speed)